Flag for U.S.A. Weather past 2 weeks in Antioch, California, U.S.A.

Now
73 °F

Partly sunny.


Feels Like: 77 °F
Forecast: 68 / 90 °F
Wind: 8 mph from Northwest

Location: Buchanan Field

Current Time: Jul 2, 2015 at 9:37:01 AM

Latest Report: Jul 2, 2015 at 8:53 AM


Visibility: 10 mi

Pressure: 29.89 "Hg

Humidity: 48%

Dew point: 52 °F

Location of AntiochLocation

Historic Weather in Antioch — Graph

°F

Antioch temperature yesterday

Maximum temperature yesterday: 98 °F (at 3:53 PM)
Minimum temperature yesterday: 64 °F (at 3:53 AM)
Average temperature yesterday: 81 °F

Past Weeks' High & Low Weather Summary

 TemperatureHumidityPressure
High105 °F (Jun 30, 5:53 PM)83% (Jun 20, 5:53 AM)30.00 "Hg (Jun 20, 5:53 AM)
Low56 °F (Jun 19, 5:53 AM)6% (Jun 30, 5:53 PM)29.72 "Hg (Jun 30, 5:53 PM)
Average73 °F48%29.87 "Hg
* Reported Jun 17 7:53 AM — Jul 2 7:53 AM, Antioch, Weather by CustomWeather, © 2015

Note: Actual official high and low records may vary slightly from our data, if they occured in-between our weather recording intervals... More about our weather records

Advertising

Antioch weather history for previous 24 hours

 ConditionsComfort  
Time TempWeatherWind HumidityBarometerVisibility
7:53 AM
Thu, Jul 2
69 °FSunny.9 mph57%29.87 "Hg10 mi
6:53 AM69 °FPartly sunny.9 mph55%29.86 "Hg10 mi
5:53 AM68 °FClear.3 mph61%29.85 "Hg10 mi
4:53 AM68 °FClear.6 mph61%29.83 "Hg10 mi
3:53 AM69 °FClear.5 mph61%29.83 "Hg10 mi
2:53 AM69 °FClear.10 mph63%29.82 "Hg10 mi
1:53 AM78 °FLight rain. Passing clouds.6 mph36%29.84 "Hg10 mi
12:53 AM75 °FClear.No wind39%29.82 "Hg10 mi
11:53 PM
Wed, Jul 1
78 °FClear.10 mph27%29.82 "Hg10 mi
10:53 PM79 °FClear.14 mph32%29.82 "Hg10 mi
9:53 PM82 °FClear.12 mph27%29.81 "Hg10 mi
8:53 PM86 °FSunny.6 mph23%29.80 "Hg10 mi
7:53 PM88 °FSunny.9 mph24%29.79 "Hg10 mi
6:53 PM89 °FSunny.14 mph19%29.76 "Hg10 mi
5:53 PM94 °FSunny.12 mph9%29.81 "Hg10 mi
4:53 PM94 °FSunny.12 mph12%29.83 "Hg10 mi
3:53 PM98 °FSunny.20 mph10%29.82 "Hg10 mi
2:53 PM95 °FSunny.13 mph18%29.84 "Hg10 mi
1:53 PM94 °FSunny.14 mph21%29.84 "Hg10 mi
12:53 PM90 °FSunny.16 mph29%29.84 "Hg10 mi
11:53 AM89 °FSunny.14 mph34%29.84 "Hg10 mi
10:53 AM87 °FSunny.8 mph35%29.84 "Hg10 mi
9:53 AM80 °FSunny.6 mph44%29.82 "Hg10 mi
Weather by CustomWeather, © 2015

See weather overviewHow to use our weather pages